Location: Holkham
(52.9500°N, 0.8167°E)
Time: 21:38:34
(UTC+00:00)

Sich 1 - Pass Details

Date: 19 May 2025
Orbit: 574 x 603 km, 82.5° (Epoch: 18 June)

Event Time Altitude Azimuth Distance (km) Brightness Sun altitude
Rises 22:30:01 0° 353° (N) 2,842 8.1 -14.9°
Reaches altitude 10° 22:32:20 10° 360° (N) 1,931 6.8 -15.0°
Maximum altitude 22:36:25 43° 73° (ENE) 826 3.7 -15.2°
Enters shadow 22:38:35 24° 132° (SE) 1,240 4.1 -15.3°
